[[{"header":{"parameterUnit":"m.s-1","parameterCategory":1,"la1":30.2991,"la2":30.254,"lo1":-89.0895,"lo2":-89.0444,"dy":0.0017,"dx":0.0017,"nx":28,"ny":28,"refTime":"2024-07-15T03:00:00:Z","depth":0,"parameterNumber":2,"parameterNumberName":"U-component_of_WINDS"},"data":[0,0,0,0,0,0,0,0,0,0,0,0,0,0,0,0,0,0,0,0,0,0,0,0,0,0,0,0,0,0,0,0,0,0,0,0,0,0,0,0,0,0,0,0,0,0,0,0,0,0,0,0,0,0,0,0,0,0,1.8438,1.8438,0,1.846,1.8461,1.8461,1.8366,1.8363,1.8361,1.8358,1.8384,1.8388,1.8391,0,0,0,0,0,0,0,0,0,0,0,0,0,1.8314,1.8317,1.8438,1.8438,1.8438,1.846,1.8461,1.8461,1.8367,1.8363,1.836,1.8357,1.8383,1.8387,1.8391,0,0,0,0,0,0,0,0,0,0,0,0,0,1.8356,1.8318,1.8438,1.8394,1.839,1.846,1.8461,1.8461,1.8367,1.8363,1.8359,1.8355,1.8382,1.8387,1.8392,1.8506,0,0,1.8407,1.8409,0,0,0,0,0,0,0,0,1.8353,1.836,1.84,1.8397,1.8393,1.8406,1.8427,1.8476,1.8369,1.8376,1.8358,1.8353,1.8395,1.8399,1.8412,1.8507,1.8508,1.8407,1.841,1.8412,1.8414,0,0,0,0,0,0,0,1.8351,1.8359,1.8447,1.8401,1.8396,1.8373,1.8375,1.8436,1.8409,1.8375,1.8368,1.8372,1.8393,1.8408,1.8412,1.8509,1.8407,1.8412,1.8415,1.8417,1.8696,1.8701,0,0,0,0,0,0,1.8353,1.8357,1.8446,1.8447,1.8362,1.8379,1.838,1.8406,1.8408,1.8404,1.8376,1.8368,1.8401,1.8407,1.8413,1.8545,1.8412,1.8417,1.842,1.8692,1.8697,1.8702,0,0,0,0,0,0,1.8351,1.8362,1.8445,1.84,1.8409,1.8386,1.8415,1.8409,1.8424,1.8408,1.8403,1.8396,1.8398,1.8406,1.8483,1.8545,1.8419,1.8424,1.8687,1.8694,1.87,1.8812,0,0,0,0,0,0,1.8348,1.8362,1.8405,1.8402,1.8412,1.8515,1.8419,1.8412,1.8432,1.8422,1.8426,1.8423,1.8396,1.8476,1.8488,1.8549,1.8428,1.8681,1.869,1.8698,1.8803,1.8822,1.8838,0,0,0,0,0,1.8344,1.8437,1.8408,1.8419,1.8465,1.8519,1.8524,1.849,1.8438,1.8481,1.847,1.8423,1.8536,1.8485,1.8497,1.8561,1.8677,1.8687,1.8697,1.8795,1.8818,1.8838,0,0,0,0,0,0,1.8449,1.8436,1.8403,1.8498,1.851,1.8502,1.8556,1.8516,1.8544,1.8533,1.849,1.8492,1.8576,1.8576,1.8519,1.8671,1.8598,1.8611,1.8668,1.869,1.8707,1.8705,1.8432,0,0,0,0,0,1.8483,1.8527,1.8513,1.8598,1.8606,1.858,1.8602,1.8574,1.8585,1.859,1.8586,1.8599,1.8637,1.8663,1.8698,1.8802,1.8801,1.8852,1.887,1.8885,1.8896,1.895,1.8972,1.8735,1.8735,1.8735,0,0,1.8555,1.8553,1.8583,1.8619,1.8625,1.8672,1.8585,1.8638,1.8672,1.8599,1.867,1.8668,1.8679,1.877,1.881,1.8773,1.8961,1.8897,1.8909,1.8913,1.8962,1.8985,1.9005,1.8742,1.8741,1.874,0,0,1.8708,1.8712,1.8782,1.8789,1.8798,1.878,1.8797,1.8795,1.879,1.8861,1.8806,1.8846,1.8913,1.8923,1.8937,1.9092,1.9049,1.9105,1.9198,1.925,1.9269,1.9285,1.9339,1.9359,1.9117,1.9117,1.9117,0,1.8796,1.8863,1.8823,1.8879,1.8896,1.883,1.8901,1.891,1.8931,1.8944,1.8902,1.8984,1.8987,1.9078,1.9116,1.913,1.9147,1.9104,1.9269,1.9285,1.93,1.9351,1.9372,1.9124,1.9123,1.9122,1.9122,0,1.897,1.9017,1.9073,1.9092,1.9116,1.9179,1.9149,1.9177,1.9147,1.9134,1.9206,1.9208,1.924,1.926,1.9232,1.9347,1.9323,1.9276,1.9202,1.933,1.9377,1.9396,1.9133,1.9131,1.9129,1.9127,0,0,1.9191,1.9187,1.9208,1.9215,1.922,1.9256,1.9316,1.9346,1.9371,1.9387,1.9436,1.9494,1.9449,1.9465,1.9437,1.9484,1.9604,1.943,1.943,1.9462,1.973,1.9765,1.9788,1.9576,1.9579,1.9582,1.9728,0,1.9341,1.9441,1.9406,1.951,1.9552,1.9489,1.9541,1.955,1.9538,1.9573,1.956,1.9601,1.954,1.9549,1.9592,1.9581,1.9658,1.957,1.9621,1.9623,1.9619,1.9813,1.9851,1.9989,1.9747,1.975,1.9752,0,1.9528,1.955,1.9657,1.9653,1.9669,1.9717,1.9741,1.9775,1.9783,1.9771,1.9788,1.975,1.9808,1.9734,1.9813,1.9754,1.9773,1.977,1.9775,1.9778,1.9695,1.9821,2.0032,2.0052,1.9781,1.9779,1.9777,0,1.9678,1.9734,1.9805,1.9813,1.981,1.9844,1.9845,1.9849,1.9869,1.989,1.9903,1.9931,1.9947,1.997,1.9941,1.9889,2.0024,1.9947,2.0016,2.0017,2.0047,2.0045,2.0263,2.0061,2.006,2.006,2.0059,0,1.9848,1.9915,1.9871,1.9915,1.9988,1.9947,2.0022,2.0015,2.0019,2.006,2.0008,2.0048,2.0006,2.0043,2.002,2.0088,2.0096,2.0088,2.0081,2.0093,2.0094,2.0104,2.0094,2.0065,2.0064,2.0063,2.0062,0,2.0027,2.0,2.0073,2.0063,2.0062,2.0117,2.0109,2.0148,2.0132,2.0185,2.0195,2.0171,2.021,2.0183,2.0223,2.0208,2.0297,2.0277,2.0294,2.0289,2.0358,2.0352,2.059,2.0619,2.0398,2.04,2.0402,0,2.0137,2.0187,2.0182,2.0205,2.0208,2.0247,2.0266,2.0227,2.025,2.0262,2.03,2.0335,2.036,2.0427,2.0413,2.0443,2.0423,2.0504,2.0427,2.0436,2.0423,2.042,2.0424,2.052,2.0522,2.0525,2.0526,0,2.0334,2.0318,2.0347,2.0372,2.0396,2.0415,2.0428,2.0451,2.0411,2.0439,2.0478,2.0498,2.0537,2.0573,2.0597,2.0597,2.0556,2.0551,2.0568,2.058,2.0587,2.0583,2.0336,2.0545,2.0543,2.0542,2.0541,2.054,2.0481,2.0522,2.0524,2.0559,2.0564,2.0578,2.0614,2.0602,2.0634,2.0662,2.0637,2.0684,2.0689,2.0717,2.0723,2.0759,2.0726,2.0751,2.0757,2.0764,2.0773,2.0581,2.0764,2.0763,2.0762,2.0762,2.0762,0,2.0674,2.0672,2.0704,2.0724,2.0751,2.0708,2.0721,2.0746,2.0787,2.0795,2.0821,2.0865,2.0898,2.0886,2.0916,2.0946,2.0928,2.0955,2.0953,2.0953,2.0802,2.0784,2.097,2.097,2.097,2.097,2.097,2.097,2.0778,2.0845,2.0829,2.0897,2.0895,2.0939,2.0949,2.0962,2.0968,2.1019,2.1045,2.1037,2.1037,2.1065,2.1094,2.1089,2.1102,2.1137,2.1126,2.0985,2.0964,2.0944,2.0927,2.114,2.114,2.1273,2.1275,2.1276]},{"header":{"parameterUnit":"m.s-1","parameterCategory":1,"la1":30.2991,"la2":30.254,"lo1":-89.0895,"lo2":-89.0444,"dy":0.0017,"dx":0.0017,"nx":28,"ny":28,"refTime":"2024-07-15T03:00:00:Z","depth":0,"parameterNumber":3,"parameterNumberName":"V-component_of_WINDS"},"data":[0,0,0,0,0,0,0,0,0,0,0,0,0,0,0,0,0,0,0,0,0,0,0,0,0,0,0,0,0,0,0,0,0,0,0,0,0,0,0,0,0,0,0,0,0,0,0,0,0,0,0,0,0,0,0,0,0,0,2.5094,2.5094,0,2.507,2.507,2.507,2.5001,2.5,2.4998,2.4997,2.4974,2.4974,2.4975,0,0,0,0,0,0,0,0,0,0,0,0,0,2.508,2.5081,2.5094,2.5094,2.5093,2.507,2.507,2.507,2.5001,2.5,2.4998,2.4996,2.4973,2.4974,2.4975,0,0,0,0,0,0,0,0,0,0,0,0,0,2.5074,2.5081,2.5094,2.5056,2.5053,2.507,2.507,2.507,2.5002,2.5,2.4997,2.4995,2.4973,2.4974,2.4975,2.5028,0,0,2.4979,2.4979,0,0,0,0,0,0,0,0,2.5075,2.5075,2.5062,2.5059,2.5055,2.5036,2.5057,2.5056,2.5002,2.5021,2.4997,2.4994,2.4996,2.4995,2.4996,2.5026,2.5025,2.4979,2.498,2.498,2.498,0,0,0,0,0,0,0,2.5075,2.5075,2.5085,2.5062,2.5058,2.5041,2.5038,2.5056,2.5022,2.5019,2.5014,2.5012,2.4994,2.4995,2.4995,2.5025,2.4979,2.498,2.4981,2.4981,2.5096,2.5098,0,0,0,0,0,0,2.5081,2.5076,2.5085,2.5084,2.5059,2.5043,2.5039,2.5045,2.5021,2.5016,2.5014,2.5009,2.4994,2.4994,2.4994,2.5052,2.498,2.4981,2.4982,2.5093,2.5096,2.5099,0,0,0,0,0,0,2.5081,2.5082,2.5086,2.5079,2.5078,2.5046,2.5052,2.5045,2.5046,2.5018,2.5011,2.5022,2.4992,2.4992,2.5019,2.505,2.4982,2.4983,2.5091,2.5094,2.5097,2.5169,0,0,0,0,0,0,2.5081,2.5083,2.5102,2.508,2.5079,2.5112,2.5054,2.5047,2.5048,2.5042,2.5023,2.5017,2.4991,2.5018,2.502,2.505,2.4984,2.5088,2.5092,2.5096,2.5164,2.5175,2.5184,0,0,0,0,0,2.508,2.5124,2.5104,2.5105,2.5102,2.5114,2.5113,2.5081,2.5051,2.507,2.5052,2.5018,2.5047,2.5021,2.5023,2.5054,2.5085,2.5091,2.5096,2.516,2.5173,2.5184,0,0,0,0,0,0,2.5151,2.512,2.5097,2.5135,2.5128,2.5102,2.5125,2.5097,2.5098,2.5092,2.5052,2.5048,2.5081,2.507,2.5042,2.5103,2.506,2.5067,2.5108,2.512,2.513,2.5131,2.4985,0,0,0,0,0,2.5171,2.5183,2.5156,2.5192,2.5189,2.5158,2.5162,2.5138,2.5129,2.5126,2.5109,2.5102,2.5109,2.5114,2.512,2.5163,2.5157,2.5185,2.5196,2.5204,2.5209,2.523,2.5241,2.5116,2.5116,2.5116,0,0,2.5213,2.5197,2.5207,2.5205,2.5197,2.521,2.5156,2.5173,2.5182,2.5128,2.5152,2.514,2.5129,2.5164,2.5179,2.5157,2.5243,2.5211,2.5218,2.5218,2.5236,2.5248,2.5259,2.512,2.5119,2.5118,0,0,2.5294,2.5285,2.5312,2.5305,2.5292,2.5271,2.5278,2.5258,2.5247,2.5271,2.523,2.5241,2.5255,2.5248,2.5247,2.5326,2.5294,2.5329,2.5381,2.5401,2.5411,2.5419,2.5446,2.5456,2.5334,2.5334,2.5335,0,2.5347,2.5365,2.533,2.5349,2.5349,2.5301,2.5328,2.5323,2.5313,2.5314,2.529,2.5305,2.5295,2.5326,2.5346,2.5347,2.5353,2.533,2.5412,2.5421,2.5428,2.5453,2.5463,2.5339,2.5338,2.5338,2.5337,0,2.543,2.5443,2.5467,2.5457,2.546,2.5484,2.5452,2.5459,2.5435,2.5417,2.5441,2.5427,2.5428,2.5434,2.5411,2.5463,2.5449,2.542,2.5375,2.5445,2.5467,2.5476,2.5344,2.5343,2.5342,2.5341,0,0,2.5554,2.5525,2.5534,2.5529,2.5512,2.5521,2.5543,2.5543,2.5549,2.5544,2.556,2.5572,2.5544,2.5543,2.5519,2.5537,2.5599,2.5505,2.5504,2.5521,2.5653,2.5674,2.5685,2.5579,2.558,2.5582,2.5653,0,2.5629,2.5662,2.5632,2.5671,2.5682,2.5637,2.5655,2.5646,2.563,2.5637,2.5619,2.5628,2.5591,2.559,2.5606,2.5588,2.5624,2.5583,2.5592,2.5593,2.5594,2.5697,2.572,2.5788,2.5662,2.5663,2.5664,0,2.5721,2.572,2.576,2.5739,2.5742,2.5759,2.5756,2.5764,2.5753,2.574,2.5738,2.5709,2.5728,2.5687,2.5711,2.5683,2.5686,2.5677,2.5679,2.5677,2.5631,2.5696,2.5809,2.5818,2.5678,2.5677,2.5676,0,2.5805,2.5814,2.5838,2.5835,2.5812,2.5825,2.5816,2.5803,2.5805,2.5803,2.5803,2.5804,2.5804,2.5806,2.5777,2.575,2.5805,2.5762,2.5794,2.5794,2.5806,2.5805,2.5918,2.5811,2.5811,2.581,2.581,0,2.5891,2.5917,2.5875,2.589,2.5917,2.5882,2.5911,2.5897,2.5886,2.5897,2.586,2.5871,2.5834,2.5841,2.582,2.5842,2.5843,2.5833,2.5826,2.5835,2.5836,2.5834,2.5828,2.5813,2.5812,2.5812,2.5811,0,2.5989,2.5962,2.5985,2.5962,2.5956,2.5978,2.5957,2.597,2.5951,2.5966,2.5968,2.5939,2.5946,2.5918,2.592,2.5906,2.5939,2.5926,2.5942,2.5938,2.597,2.5967,2.6085,2.6098,2.5984,2.5986,2.5986,0,2.6044,2.6063,2.6041,2.6046,2.6039,2.6047,2.6048,2.6015,2.6018,2.6007,2.6021,2.6025,2.6026,2.6039,2.6018,2.6019,2.6005,2.6046,2.6005,2.6012,2.6003,2.6001,2.6002,2.6054,2.6055,2.6057,2.6057,0,2.6145,2.6131,2.6134,2.6133,2.6136,2.6133,2.6128,2.6134,2.6098,2.6104,2.611,2.6111,2.6113,2.6117,2.6114,2.6104,2.6075,2.6071,2.6078,2.6086,2.6094,2.6088,2.5964,2.6068,2.6067,2.6066,2.6065,2.6065,2.6222,2.6236,2.6222,2.6227,2.622,2.6216,2.6226,2.6209,2.6213,2.6212,2.6192,2.6202,2.6191,2.6184,2.6177,2.6185,2.6165,2.6176,2.6178,2.6181,2.6186,2.6095,2.6184,2.6184,2.6184,2.6183,2.6183,0,2.6319,2.6308,2.6313,2.6307,2.631,2.6282,2.6275,2.628,2.6289,2.6281,2.6282,2.6289,2.6293,2.6273,2.6273,2.6283,2.6269,2.6284,2.6282,2.628,2.6204,2.6197,2.6295,2.6295,2.6295,2.6295,2.6295,2.6295,2.637,2.6391,2.6375,2.6393,2.6382,2.639,2.6389,2.6385,2.6378,2.6387,2.6389,2.6376,2.6363,2.6362,2.6364,2.6358,2.6359,2.6378,2.6367,2.6296,2.6286,2.6275,2.6268,2.6379,2.6379,2.6442,2.6443,2.6443]}]]